Theta_e
318 320 320 320 321 321 321 321 320 319 320 318 316 314 314 314 315 316 318 320 319 319 318 320 319 318 315 311 309 306 306 305 304 303 302 299 299 299 297 297 296 295 294 295
323 322 319 317 318 318 317 317 318 317 318 316 315 313 313 312 312 313 313 316 318 319 319 318 317 314 311 307 306 306 305 304 300 299 299 300 299 297 296 296 295 294 294 294
323 315 315 313 316 316 317 317 316 317 315 313 313 314 314 312 313 314 313 314 317 317 318 318 315 312 308 307 306 306 301 299 298 299 299 297 296 296 295 294 294 294 294 293
316 313 312 316 314 313 313 313 312 312 311 312 312 312 312 311 312 312 313 313 314 315 316 315 312 309 307 306 303 300 299 298 297 297 297 296 295 295 294 294 294 294 293 293
314 315 317 316 314 315 314 314 313 313 312 312 312 312 314 312 312 311 311 311 313 314 311 309 307 304 302 301 299 298 298 296 295 295 295 294 294 294 293 293 293 293 293 292
315 316 312 317 314 314 313 316 315 314 314 315 313 313 315 312 312 311 310 308 306 303 302 302 301 301 298 297 295 295 295 295 295 294 294 293 293 293 293 292 292 292 292 292
309 311 316 318 314 314 312 314 315 314 314 314 315 315 313 312 311 307 303 299 298 297 297 297 297 297 296 296 295 295 294 294 294 293 293 293 292 292 292 292 292 292 292 291
316 319 320 313 314 314 316 313 313 313 313 313 313 313 314 311 305 303 299 297 296 295 295 295 295 295 294 294 294 294 295 295 293 293 293 292 292 292 292 292 292 292 290 290
318 317 317 312 315 314 314 314 314 314 314 314 314 314 309 302 300 298 297 297 296 295 295 293 293 294 294 294 294 294 294 293 292 291 291 292 292 292 292 292 292 291 290 290
314 317 314 317 315 315 314 314 311 309 308 310 310 304 301 300 298 297 296 296 296 295 295 294 294 294 294 293 293 292 292 291 292 292 292 292 291 292 292 292 290 290 290 289
315 317 316 313 313 312 310 309 305 303 303 302 301 301 299 298 297 296 295 295 295 294 294 294 294 294 294 293 292 292 292 291 291 291 291 291 292 291 291 290 289 289 289 288
314 315 314 310 307 306 305 305 304 302 300 299 298 297 297 297 296 295 294 294 294 294 294 294 294 293 292 292 292 291 291 291 290 290 290 291 290 290 289 289 289 289 289 288
316 311 308 305 303 302 302 301 300 299 298 297 296 295 294 293 294 294 294 294 294 294 293 293 292 292 292 292 292 291 291 291 290 290 290 290 290 290 289 290 289 288 288 287
310 308 307 305 303 300 299 299 298 297 296 295 295 295 295 294 295 295 295 293 293 292 292 292 291 291 290 290 290 291 291 291 291 291 291 291 290 290 290 289 289 288 289 288
306 306 304 302 300 299 298 297 297 296 296 296 296 296 295 293 293 292 292 292 291 290 290 290 290 290 291 291 291 291 291 291 291 291 291 291 290 290 290 289 289 288 288 288
304 303 302 301 300 298 298 297 296 295 295 293 292 291 291 292 292 292 291 290 289 288 288 289 290 289 289 289 289 289 289 289 289 289 289 290 290 290 289 289 289 288 288 287
302 302 301 301 300 299 298 297 295 294 292 290 288 289 289 290 290 288 287 286 286 288 289 288 285 285 285 285 285 285 285 286 286 287 287 288 288 289 289 289 288 288 288 286
302 301 300 298 298 297 295 293 291 290 289 288 287 287 286 285 286 286 285 286 287 286 284 283 282 281 281 282 283 282 283 283 283 283 284 284 285 286 288 288 288 287 286 286
300 299 299 298 295 294 293 291 289 287 287 286 286 286 284 284 285 283 285 285 282 281 281 280 279 280 280 279 278 278 279 281 281 282 283 284 284 285 287 287 287 287 286 286
295 294 293 292 292 291 290 289 287 284 284 284 282 281 281 283 282 283 283 283 280 279 279 278 279 277 276 275 277 278 279 280 280 282 283 284 284 284 285 286 285 283 282 282
293 291 290 289 288 287 286 286 285 283 283 281 280 280 281 281 282 282 281 280 279 277 276 277 275 274 273 274 275 275 275 276 277 277 279 279 280 280 281 280 279 278 278 278
292 291 290 288 286 285 284 283 282 281 281 281 280 280 280 280 280 280 280 278 277 275 275 275 274 273 272 272 272 272 272 273 272 273 273 275 276 276 277 276 275 275 275 275
291 290 289 287 285 283 284 283 281 281 281 280 280 279 279 279 279 278 278 277 275 274 274 274 273 272 271 270 270 270 270 270 269 269 270 271 271 272 272 271 271 271 271 272
290 288 286 286 285 283 282 282 282 280 280 280 279 278 278 278 277 276 276 275 274 274 273 272 272 271 270 269 269 268 268 268 267 267 267 268 268 268 268 268 268 268 269 269
288 287 286 285 283 282 280 281 281 279 279 279 277 276 277 277 276 275 274 274 274 273 272 271 271 270 269 268 268 267 267 266 266 266 265 265 266 265 266 266 266 267 267 267
285 283 282 281 280 279 279 279 279 277 278 277 276 275 276 276 275 274 273 272 272 272 271 270 269 269 268 268 267 267 266 265 265 265 264 263 263 263 263 264 264 265 265 266
283 283 280 279 278 278 278 277 276 276 276 275 274 274 275 274 274 273 271 270 270 270 269 269 268 267 267 267 266 266 265 264 264 264 263 262 261 261 262 262 263 263 263 263
Wind_Speed
4 5 5 2 1 4 6 6 6 9 8 9 5 5 2 5 1 2 6 7 9 10 8 19 22 22 24 30 29 26 19 12 11 14 8 10 1 9 6 7 9 13 13 13
1 5 7 4 7 6 7 6 3 2 4 5 3 6 8 7 7 7 8 7 7 10 13 17 22 25 28 30 28 20 14 10 17 16 6 9 12 5 6 12 12 10 9 12
2 4 6 6 7 6 6 4 3 2 4 8 10 9 6 8 8 7 8 8 6 7 11 19 24 29 29 29 22 17 19 18 12 5 5 2 2 6 10 14 14 14 12 15
3 3 2 9 2 5 7 7 8 8 7 7 7 10 11 8 9 10 8 8 7 6 9 20 26 27 28 26 27 23 19 15 10 9 2 2 3 11 12 12 13 14 14 15
4 4 4 7 2 2 4 4 6 8 8 7 5 8 8 8 7 7 7 7 12 19 22 24 26 29 31 27 25 22 17 17 15 11 10 8 9 9 13 16 14 14 15 16
2 4 6 6 3 4 3 1 5 8 8 8 8 5 3 7 8 10 22 24 25 27 29 31 28 30 30 24 27 23 20 13 11 10 7 11 16 15 15 16 21 19 16 13
3 2 7 5 5 0 6 5 4 6 6 7 4 4 4 6 12 22 25 26 30 33 30 27 29 32 28 26 22 19 14 10 1 8 15 16 14 15 19 18 17 19 20 15
3 2 5 6 4 6 5 4 7 6 5 6 6 6 4 10 13 18 21 25 27 29 27 27 27 29 23 21 15 9 1 6 10 12 14 16 17 20 20 17 20 21 15 13
7 6 6 7 12 6 8 7 6 7 8 7 7 7 14 14 16 20 23 24 24 25 22 21 23 19 15 8 4 3 4 9 13 14 13 15 19 17 15 18 20 25 17 15
5 1 8 11 10 9 10 10 13 12 9 7 8 15 14 13 13 17 18 18 20 20 16 13 9 9 8 3 5 6 8 10 13 15 16 13 17 16 18 18 11 11 14 18
4 11 14 11 7 10 12 13 15 16 16 13 16 14 13 12 12 16 16 15 14 13 11 12 9 6 7 7 8 10 12 14 15 14 16 16 15 15 14 14 15 16 18 19
4 5 10 6 8 13 15 13 12 14 14 15 15 12 13 10 12 12 12 13 14 11 7 4 5 6 6 9 11 15 15 15 18 19 18 19 21 23 18 18 18 17 22 22
5 11 16 14 14 14 15 13 13 14 14 12 14 15 15 12 14 13 12 9 5 6 8 7 8 12 13 14 14 16 19 21 20 21 23 24 25 25 26 27 24 24 22 22
13 18 11 4 9 12 15 17 20 19 18 17 17 17 16 13 9 7 5 8 10 11 12 13 12 13 15 17 15 16 21 24 25 27 29 30 32 31 30 28 24 26 29 24
13 13 15 15 16 12 16 16 12 9 9 11 10 9 9 10 13 17 17 15 13 12 13 15 18 20 20 20 21 23 24 27 29 32 34 36 32 29 29 30 30 27 28 29
14 14 14 15 14 12 11 8 8 6 10 12 15 17 15 16 16 15 16 17 16 14 17 18 18 19 19 21 23 23 23 24 26 26 27 27 27 28 24 20 19 23 24 26
15 12 13 13 13 12 11 11 12 12 13 14 13 12 15 16 16 16 16 17 16 15 15 14 20 22 26 22 23 24 25 27 26 26 26 27 27 25 24 18 16 18 19 26
12 11 11 15 13 12 11 15 16 16 12 11 12 13 14 13 11 12 17 17 17 14 20 21 25 28 27 25 25 26 25 27 28 28 28 28 27 28 28 22 21 22 23 24
20 15 16 16 19 18 15 16 17 18 16 14 17 14 11 12 13 15 16 18 17 17 19 22 27 21 20 25 33 35 31 30 31 30 27 28 27 29 28 19 22 16 20 25
20 22 22 20 22 20 17 19 20 20 16 16 15 16 15 16 16 15 15 13 16 17 24 25 19 24 32 33 28 28 27 26 29 32 28 26 28 30 31 17 2 8 11 14
16 18 18 20 19 21 21 19 19 16 14 15 18 17 14 13 14 15 14 10 13 21 22 17 21 29 32 27 24 25 27 27 27 28 26 27 27 25 23 20 17 16 16 17
16 16 17 18 18 17 17 17 17 15 14 13 14 14 13 13 13 12 11 14 14 21 21 17 24 27 29 24 25 26 26 24 26 25 26 27 25 24 21 20 19 20 20 20
15 15 18 19 17 18 15 13 14 15 13 12 13 12 12 10 11 12 8 12 17 18 19 19 22 25 27 25 24 25 25 23 26 25 24 24 24 22 21 22 21 23 22 22
16 17 18 19 18 16 13 10 11 13 12 11 12 11 11 10 8 11 12 14 15 17 18 19 20 23 22 23 22 23 24 22 23 24 23 23 23 22 22 22 22 22 22 23
18 16 14 16 15 13 13 10 12 11 10 9 9 12 9 9 8 11 12 14 15 16 16 18 19 18 19 20 20 21 21 22 23 22 22 23 22 22 22 22 23 22 23 23
17 16 18 18 15 13 11 9 11 10 9 6 8 13 11 8 9 10 11 13 15 15 17 17 16 17 19 17 19 19 19 22 22 19 23 24 21 24 22 23 23 23 24 23
18 18 17 16 14 11 10 8 8 6 8 6 11 11 11 8 9 9 11 14 16 15 16 14 15 17 19 16 19 18 19 21 20 17 22 25 24 22 22 23 23 23 24 24
Wind_Direction
312 324 344 290 306 300 306 222 149 234 212 250 263 154 352 179 181 155 160 201 189 177 142 144 155 156 153 153 157 159 158 168 189 215 199 156 141 290 246 286 287 298 290 285
334 349 17 21 330 311 300 301 323 337 249 232 134 75 58 66 66 68 51 33 103 126 141 151 148 153 155 153 149 151 149 159 132 130 111 356 308 246 298 297 290 281 284 296
236 359 10 350 256 244 251 284 259 303 333 66 48 50 46 49 50 62 75 61 84 132 154 159 155 155 150 150 149 149 132 119 119 119 33 220 266 301 301 291 281 281 285 298
175 39 39 243 265 124 94 58 65 71 63 82 72 49 46 54 74 50 43 46 62 104 115 144 147 142 143 147 136 122 116 113 95 70 30 245 352 283 292 302 297 279 285 290
134 186 286 321 53 126 122 36 38 65 35 37 30 69 26 17 55 54 51 46 63 83 103 112 115 122 120 119 115 104 92 82 73 52 17 324 300 308 294 292 290 290 290 288
133 145 200 237 159 44 64 46 32 61 42 38 40 64 288 9 16 42 52 59 75 76 80 89 101 108 100 88 87 79 73 67 43 24 318 291 287 282 285 301 295 291 296 274
130 181 285 226 146 178 96 217 70 68 62 53 75 170 186 73 65 72 79 76 76 71 72 73 85 94 81 80 76 78 71 61 211 254 263 264 280 291 286 287 286 289 287 273
99 104 278 180 96 129 191 78 77 63 62 57 34 21 47 86 88 81 81 79 80 78 73 75 79 84 80 80 86 90 235 254 237 257 278 291 291 289 277 279 287 286 270 274
160 206 220 74 102 89 90 91 50 59 48 68 56 30 77 79 73 74 80 81 81 86 83 80 83 86 102 137 171 243 278 272 290 300 296 286 287 292 292 291 284 289 261 274
85 326 93 85 72 72 71 74 66 58 44 47 53 90 87 80 77 78 77 78 86 88 95 108 103 92 84 68 333 307 294 293 291 290 295 289 295 295 299 300 294 282 275 273
111 112 85 51 55 86 71 68 77 63 56 68 86 76 87 85 83 85 93 101 92 86 73 62 42 11 329 306 300 296 294 295 293 288 291 293 290 294 294 296 304 298 291 292
198 94 107 93 70 83 77 67 78 82 69 64 81 91 93 91 94 90 80 70 63 56 47 16 341 339 323 305 295 293 283 280 288 290 285 286 288 291 290 294 298 291 288 289
124 99 102 100 77 73 83 79 77 81 83 84 72 83 84 83 83 82 78 78 63 19 16 12 341 321 318 307 290 273 271 282 284 283 283 280 278 274 272 287 284 282 288 283
110 111 103 101 108 96 96 95 93 91 93 96 100 100 106 108 107 94 68 54 39 22 8 357 351 343 334 328 323 305 285 279 277 281 281 279 276 271 265 262 274 285 291 292
72 86 111 114 111 108 104 106 99 98 104 101 94 94 86 77 64 60 56 40 25 14 0 351 343 345 347 341 332 323 315 308 302 295 286 280 274 269 264 263 269 276 282 287
101 104 108 110 112 113 113 105 103 105 89 76 65 57 59 65 61 50 39 20 11 351 351 359 10 8 358 353 348 339 330 324 320 315 310 299 290 276 264 266 273 270 271 269
114 117 123 128 131 123 109 101 96 96 89 77 73 68 63 59 48 30 17 10 7 9 26 25 7 356 350 347 338 330 324 320 317 315 309 300 292 283 273 266 268 278 275 295
122 122 114 117 119 108 100 96 91 86 82 87 81 72 62 48 30 20 6 8 19 55 19 4 353 347 347 348 346 346 336 325 317 310 306 303 299 296 284 264 273 275 287 295
112 114 110 103 107 105 103 101 96 90 88 91 80 76 68 45 37 18 15 23 46 25 8 356 355 355 353 345 340 337 332 323 313 303 300 301 296 300 280 266 261 277 296 294
89 89 91 91 94 99 98 107 100 85 85 90 79 61 52 44 29 24 23 56 39 21 357 360 358 353 352 348 352 353 341 340 343 345 306 298 295 293 282 244 35 34 17 7
98 99 98 98 96 97 101 105 103 93 91 75 64 52 46 38 29 25 38 40 19 359 1 3 1 360 356 357 359 356 355 357 0 352 350 355 8 16 21 34 40 31 19 9
111 114 116 113 105 100 103 102 99 92 89 82 61 55 47 31 31 22 31 30 3 5 8 9 3 0 0 5 3 1 0 4 3 360 359 359 7 7 12 23 22 19 16 13
114 117 122 121 118 115 109 118 102 86 84 91 75 65 45 31 19 31 18 7 4 7 8 5 0 360 2 7 6 2 5 5 4 2 1 2 5 9 13 12 10 8 7 3
121 113 118 122 132 110 88 79 115 84 79 73 68 43 30 22 29 14 10 359 2 3 8 3 360 357 2 8 6 4 5 3 3 2 1 2 2 5 5 4 2 0 359 353
121 126 130 113 96 90 83 75 81 68 54 56 44 11 18 5 15 8 3 6 4 2 4 360 358 358 1 4 3 4 5 5 4 2 2 0 0 359 357 356 355 354 353 354
112 99 95 94 95 92 79 74 73 51 34 38 8 2 6 9 5 4 359 1 1 1 1 359 357 357 358 2 3 3 3 358 359 4 358 358 355 351 354 352 350 349 348 350
99 119 105 91 82 74 64 69 47 22 13 23 1 358 354 9 7 6 1 358 357 360 358 357 357 356 357 1 3 360 359 356 359 356 352 353 352 353 354 348 346 345 344 340